• In Russia
  • List of Countries
  • For 7 days
  • Water Temperature
  • Weather Map
  • Weather Widgets
  • user-avatar
    Login

    Hourly Weather Przylekow

    Today, 15 September, Sunday

    Time Temperature Precipitation Wind Pressure Humidity
    00:00 +9°C° 0 mm 1 mps 724 mmHg 79%
    01:00 +8°C° 0 mm 1 mps 724 mmHg 79%
    02:00 +8°C° 0 mm 1 mps 724 mmHg 80%
    03:00 +8°C° 0 mm 1 mps 724 mmHg 81%
    04:00 +8°C° 0 mm 1 mps 723 mmHg 82%
    05:00 +9°C° 0 mm 1 mps 723 mmHg 78%
    06:00 +10°C° 0 mm 1 mps 723 mmHg 75%
    07:00 +11°C° 0 mm 1 mps 723 mmHg 72%
    08:00 +13°C° 0 mm 2 mps 723 mmHg 64%
    09:00 +15°C° 0 mm 2 mps 723 mmHg 57%
    10:00 +18°C° 0 mm 2 mps 723 mmHg 49%
    11:00 +19°C° 0 mm 3 mps 722 mmHg 47%
    12:00 +20°C° 0 mm 3 mps 722 mmHg 46%
    13:00 +20°C° 0 mm 3 mps 721 mmHg 44%
    14:00 +20°C° 0 mm 3 mps 721 mmHg 48%
    15:00 +20°C° 0 mm 3 mps 720 mmHg 53%
    16:00 +20°C° 0 mm 3 mps 720 mmHg 58%
    17:00 +18°C° 0 mm 3 mps 719 mmHg 66%
    18:00 +16°C° 0 mm 3 mps 719 mmHg 73%
    19:00 +13°C° 0 mm 3 mps 719 mmHg 80%
    20:00 +12°C° 0 mm 3 mps 718 mmHg 81%
    21:00 +13°C° 0 mm 2 mps 718 mmHg 83%
    22:00 +13°C° 0 mm 2 mps 718 mmHg 84%
    23:00 +13°C° 0 mm 2 mps 718 mmHg 84%

    Tomorrow, 16 September, Monday

    Time Temperature Precipitation Wind Pressure Humidity
    00:00 +13°C° 0 mm 2 mps 718 mmHg 84%
    01:00 +13°C° 0 mm 2 mps 718 mmHg 84%
    02:00 +12°C° 0 mm 2 mps 717 mmHg 85%
    03:00 +12°C° 0 mm 2 mps 717 mmHg 86%
    04:00 +12°C° 0 mm 2 mps 717 mmHg 87%
    05:00 +13°C° 0 mm 2 mps 717 mmHg 85%
    06:00 +14°C° 0 mm 2 mps 717 mmHg 83%
    07:00 +15°C° 0 mm 1 mps 717 mmHg 82%
    08:00 +16°C° 0 mm 2 mps 717 mmHg 75%
    09:00 +18°C° 0 mm 2 mps 717 mmHg 68%
    10:00 +20°C° 0 mm 2 mps 717 mmHg 61%
    11:00 +20°C° 0 mm 3 mps 717 mmHg 57%
    12:00 +21°C° 0 mm 3 mps 717 mmHg 54%
    13:00 +22°C° 0 mm 4 mps 716 mmHg 50%
    14:00 +21°C° 0 mm 3 mps 716 mmHg 55%
    15:00 +20°C° 0 mm 3 mps 716 mmHg 59%
    16:00 +19°C° 0 mm 2 mps 715 mmHg 63%
    17:00 +18°C° 0 mm 2 mps 715 mmHg 67%
    18:00 +18°C° 0 mm 1 mps 715 mmHg 71%
    19:00 +15°C° 0 mm 1 mps 714 mmHg 74%
    20:00 +15°C° 0.1 mm 1 mps 714 mmHg 78%
    21:00 +15°C° 0.1 mm 2 mps 714 mmHg 82%
    22:00 +14°C° 0.1 mm 2 mps 714 mmHg 85%
    23:00 +14°C° 0.2 mm 2 mps 714 mmHg 88%

    Day after tomorrow, 17 September, Tuesday

    Time Temperature Precipitation Wind Pressure Humidity
    00:00 +14°C° 0.2 mm 2 mps 714 mmHg 91%
    01:00 +13°C° 0.2 mm 2 mps 714 mmHg 94%
    02:00 +13°C° 0.3 mm 2 mps 714 mmHg 94%
    03:00 +13°C° 0.3 mm 2 mps 714 mmHg 95%
    04:00 +13°C° 0.3 mm 2 mps 714 mmHg 95%
    05:00 +12°C° 0.3 mm 2 mps 714 mmHg 95%
    06:00 +12°C° 0.3 mm 2 mps 714 mmHg 94%
    07:00 +10°C° 0.3 mm 2 mps 714 mmHg 93%
    08:00 +12°C° 0.1 mm 2 mps 714 mmHg 90%
    09:00 +12°C° 0.1 mm 2 mps 714 mmHg 86%
    10:00 +12°C° 0.1 mm 2 mps 714 mmHg 83%
    11:00 +13°C° 0 mm 2 mps 714 mmHg 77%
    12:00 +12°C° 0 mm 3 mps 714 mmHg 72%
    13:00 +13°C° 0 mm 3 mps 713 mmHg 67%
    14:00 +12°C° 0 mm 4 mps 713 mmHg 66%
    15:00 +12°C° 0 mm 4 mps 713 mmHg 65%
    16:00 +12°C° 0 mm 4 mps 713 mmHg 65%
    17:00 +11°C° 0 mm 4 mps 713 mmHg 68%
    18:00 +10°C° 0 mm 4 mps 713 mmHg 72%
    19:00 +9°C° 0 mm 3 mps 713 mmHg 75%
    20:00 +8°C° 0.1 mm 3 mps 713 mmHg 79%
    21:00 +7°C° 0.1 mm 4 mps 713 mmHg 82%
    22:00 +6°C° 0.1 mm 4 mps 714 mmHg 85%
    23:00 +6°C° 0.1 mm 4 mps 714 mmHg 86%

    18 September, Wednesday

    Time Temperature Precipitation Wind Pressure Humidity
    00:00 +5°C° 0.1 mm 3 mps 714 mmHg 87%
    01:00 +5°C° 0.1 mm 3 mps 714 mmHg 87%
    02:00 +5°C° 0 mm 3 mps 714 mmHg 88%
    03:00 +4°C° 0 mm 3 mps 714 mmHg 88%
    04:00 +5°C° 0 mm 2 mps 715 mmHg 89%
    05:00 +4°C° 0.1 mm 3 mps 715 mmHg 88%
    06:00 +4°C° 0.1 mm 3 mps 716 mmHg 86%
    07:00 +5°C° 0.1 mm 3 mps 716 mmHg 85%
    08:00 +5°C° 0 mm 3 mps 716 mmHg 82%
    09:00 +7°C° 0 mm 3 mps 717 mmHg 78%
    10:00 +8°C° 0 mm 2 mps 717 mmHg 75%
    11:00 +8°C° 0.1 mm 3 mps 717 mmHg 71%
    12:00 +9°C° 0.1 mm 3 mps 717 mmHg 66%
    13:00 +10°C° 0.1 mm 3 mps 717 mmHg 62%
    14:00 +10°C° 0 mm 3 mps 717 mmHg 60%
    15:00 +10°C° 0 mm 3 mps 717 mmHg 57%
    16:00 +11°C° 0 mm 3 mps 717 mmHg 55%
    17:00 +9°C° 0 mm 2 mps 717 mmHg 63%
    18:00 +7°C° 0 mm 2 mps 717 mmHg 71%
    19:00 +6°C° 0 mm 1 mps 717 mmHg 78%
    20:00 +6°C° 0 mm 1 mps 717 mmHg 79%
    21:00 +6°C° 0 mm 1 mps 717 mmHg 80%
    22:00 +5°C° 0 mm 1 mps 718 mmHg 80%
    23:00 +5°C° 0 mm 1 mps 718 mmHg 81%

    19 September, Thursday

    Time Temperature Precipitation Wind Pressure Humidity
    00:00 +5°C° 0 mm 1 mps 718 mmHg 83%
    01:00 +5°C° 0 mm 1 mps 718 mmHg 84%
    02:00 +4°C° 0 mm 1 mps 717 mmHg 85%
    03:00 +4°C° 0 mm 1 mps 717 mmHg 86%
    04:00 +4°C° 0 mm 1 mps 717 mmHg 87%
    05:00 +5°C° 0 mm 1 mps 718 mmHg 84%
    06:00 +6°C° 0 mm 1 mps 718 mmHg 80%
    07:00 +7°C° 0 mm 1 mps 718 mmHg 77%
    08:00 +8°C° 0.2 mm 1 mps 718 mmHg 76%
    09:00 +7°C° 0.2 mm 2 mps 719 mmHg 76%
    10:00 +8°C° 0.2 mm 2 mps 719 mmHg 75%
    11:00 +9°C° 0.2 mm 2 mps 719 mmHg 74%
    12:00 +9°C° 0.2 mm 2 mps 719 mmHg 72%
    13:00 +9°C° 0.2 mm 2 mps 719 mmHg 71%
    14:00 +9°C° 0.1 mm 2 mps 719 mmHg 69%
    15:00 +9°C° 0.1 mm 2 mps 719 mmHg 68%
    16:00 +9°C° 0.1 mm 2 mps 719 mmHg 66%
    17:00 +8°C° 0.1 mm 2 mps 719 mmHg 74%
    18:00 +7°C° 0.1 mm 1 mps 719 mmHg 82%
    19:00 +5°C° 0.1 mm 1 mps 719 mmHg 90%
    20:00 +5°C° 0.1 mm 1 mps 719 mmHg 91%
    21:00 +5°C° 0.1 mm 1 mps 720 mmHg 92%
    22:00 +5°C° 0.1 mm 1 mps 720 mmHg 93%
    23:00 +5°C° 0.1 mm 1 mps 720 mmHg 93%

    20 September, Friday

    Time Temperature Precipitation Wind Pressure Humidity
    00:00 +5°C° 0.1 mm 1 mps 721 mmHg 94%
    01:00 +5°C° 0.1 mm 1 mps 721 mmHg 94%
    02:00 +5°C° 0.2 mm 1 mps 721 mmHg 94%
    03:00 +4°C° 0.2 mm 1 mps 721 mmHg 95%
    04:00 +4°C° 0.2 mm 1 mps 721 mmHg 95%
    05:00 +4°C° 0 mm 1 mps 722 mmHg 93%
    06:00 +4°C° 0 mm 1 mps 722 mmHg 91%
    07:00 +4°C° 0 mm 2 mps 722 mmHg 89%
    08:00 +4°C° 0 mm 2 mps 723 mmHg 85%
    09:00 +5°C° 0 mm 2 mps 723 mmHg 82%
    10:00 +6°C° 0 mm 2 mps 724 mmHg 78%
    11:00 +7°C° 0.2 mm 2 mps 723 mmHg 74%
    12:00 +8°C° 0.2 mm 3 mps 723 mmHg 71%
    13:00 +9°C° 0.2 mm 3 mps 723 mmHg 67%
    14:00 +9°C° 0.2 mm 3 mps 723 mmHg 67%
    15:00 +9°C° 0.2 mm 3 mps 723 mmHg 67%
    16:00 +9°C° 0.2 mm 3 mps 723 mmHg 66%
    17:00 +7°C° 0 mm 2 mps 723 mmHg 71%
    18:00 +6°C° 0 mm 1 mps 723 mmHg 75%
    19:00 +4°C° 0 mm 1 mps 723 mmHg 80%
    20:00 +4°C° 0 mm 1 mps 723 mmHg 81%
    21:00 +4°C° 0 mm 1 mps 723 mmHg 81%
    22:00 +3°C° 0 mm 1 mps 723 mmHg 82%
    23:00 +3°C° 0 mm 1 mps 723 mmHg 82%
    Show more